When you browse on this site, cookies collect data to enhance your experience and personalize the content and advertising you see.
Visit our Privacy Policy to learn more. By continuing to use the site, you agree to this use of cookies and data.
  • En España
  • Lista de países
  • Para 7 días
  • Temperatura del agua
  • El tiempo en el mapa
  • Informadores
  • user-avatar
    Iniciar sesión

    Tiempo cada hora Birmingham

    Hoy, 5 Diciembre, Jueves

    Tiempo Temperatura Precipitaciones Viento Presión Humedad
    00:00 +3°C° 0 mm 2 mps 752 mmHg 93%
    01:00 +2°C° 0 mm 3 mps 751 mmHg 93%
    02:00 +2°C° 0 mm 3 mps 751 mmHg 93%
    03:00 +2°C° 0 mm 3 mps 750 mmHg 94%
    04:00 +2°C° 0 mm 3 mps 751 mmHg 93%
    05:00 +2°C° 0 mm 3 mps 751 mmHg 93%
    06:00 +2°C° 0 mm 3 mps 751 mmHg 93%
    07:00 +2°C° 0 mm 3 mps 751 mmHg 93%
    08:00 +1°C° 0 mm 4 mps 750 mmHg 92%
    09:00 +1°C° 0 mm 4 mps 750 mmHg 91%
    10:00 +3°C° 0 mm 5 mps 750 mmHg 88%
    11:00 +4°C° 0 mm 6 mps 749 mmHg 85%
    12:00 +5°C° 0 mm 7 mps 749 mmHg 81%
    13:00 +5°C° 0.1 mm 7 mps 748 mmHg 82%
    14:00 +5°C° 0.1 mm 8 mps 747 mmHg 83%
    15:00 +6°C° 0.1 mm 8 mps 746 mmHg 84%
    16:00 +6°C° 0 mm 8 mps 746 mmHg 84%
    17:00 +6°C° 0 mm 8 mps 745 mmHg 84%
    18:00 +7°C° 0 mm 8 mps 745 mmHg 84%
    19:00 +7°C° 0 mm 8 mps 745 mmHg 85%
    20:00 +9°C° 0 mm 8 mps 744 mmHg 85%
    21:00 +9°C° 0 mm 8 mps 744 mmHg 85%
    22:00 +9°C° 0 mm 8 mps 743 mmHg 85%
    23:00 +9°C° 0 mm 8 mps 743 mmHg 86%

    Mañana, 6 Diciembre, Viernes

    Tiempo Temperatura Precipitaciones Viento Presión Humedad
    00:00 +10°C° 0 mm 8 mps 743 mmHg 86%
    01:00 +10°C° 0.3 mm 8 mps 742 mmHg 87%
    02:00 +10°C° 0.3 mm 8 mps 741 mmHg 88%
    03:00 +10°C° 0.3 mm 8 mps 741 mmHg 89%
    04:00 +10°C° 0.1 mm 7 mps 741 mmHg 90%
    05:00 +10°C° 0.1 mm 7 mps 740 mmHg 90%
    06:00 +10°C° 0.1 mm 6 mps 740 mmHg 91%
    07:00 +10°C° 0.1 mm 6 mps 740 mmHg 90%
    08:00 +10°C° 0.1 mm 6 mps 739 mmHg 89%
    09:00 +10°C° 0.1 mm 6 mps 739 mmHg 88%
    10:00 +10°C° 0.2 mm 6 mps 738 mmHg 85%
    11:00 +10°C° 0.2 mm 7 mps 738 mmHg 82%
    12:00 +11°C° 0.2 mm 7 mps 737 mmHg 80%
    13:00 +10°C° 0.8 mm 7 mps 737 mmHg 80%
    14:00 +9°C° 0.8 mm 8 mps 737 mmHg 81%
    15:00 +7°C° 0.8 mm 8 mps 737 mmHg 81%
    16:00 +8°C° 0.1 mm 7 mps 737 mmHg 81%
    17:00 +7°C° 0.1 mm 6 mps 738 mmHg 81%
    18:00 +7°C° 0.1 mm 6 mps 739 mmHg 81%
    19:00 +7°C° 0 mm 5 mps 740 mmHg 82%
    20:00 +6°C° 0 mm 5 mps 741 mmHg 84%
    21:00 +6°C° 0 mm 5 mps 742 mmHg 86%
    22:00 +6°C° 0 mm 5 mps 742 mmHg 87%
    23:00 +6°C° 0 mm 5 mps 743 mmHg 87%

    Pasado mañana, 7 Diciembre, Sábado

    Tiempo Temperatura Precipitaciones Viento Presión Humedad
    00:00 +5°C° 0 mm 5 mps 743 mmHg 87%
    01:00 +5°C° 0 mm 5 mps 743 mmHg 87%
    02:00 +5°C° 0 mm 5 mps 744 mmHg 87%
    03:00 +5°C° 0 mm 5 mps 744 mmHg 88%
    04:00 +5°C° 0 mm 4 mps 744 mmHg 88%
    05:00 +5°C° 0 mm 4 mps 745 mmHg 88%
    06:00 +5°C° 0 mm 4 mps 745 mmHg 88%
    07:00 +5°C° 0 mm 4 mps 745 mmHg 88%
    08:00 +5°C° 0 mm 4 mps 746 mmHg 88%
    09:00 +5°C° 0 mm 4 mps 746 mmHg 88%
    10:00 +6°C° 0 mm 4 mps 746 mmHg 85%
    11:00 +7°C° 0 mm 5 mps 746 mmHg 83%
    12:00 +8°C° 0 mm 5 mps 746 mmHg 80%
    13:00 +8°C° 0 mm 5 mps 745 mmHg 82%
    14:00 +8°C° 0 mm 5 mps 745 mmHg 84%
    15:00 +8°C° 0 mm 5 mps 744 mmHg 85%
    16:00 +8°C° 0 mm 6 mps 744 mmHg 87%
    17:00 +8°C° 0 mm 6 mps 743 mmHg 88%
    18:00 +7°C° 0 mm 6 mps 743 mmHg 90%
    19:00 +6°C° 0.1 mm 7 mps 742 mmHg 89%
    20:00 +7°C° 0.1 mm 8 mps 741 mmHg 87%
    21:00 +7°C° 0.1 mm 9 mps 740 mmHg 86%
    22:00 +7°C° 1.1 mm 9 mps 739 mmHg 88%
    23:00 +8°C° 1.1 mm 10 mps 737 mmHg 90%

    8 Diciembre, Domingo

    Tiempo Temperatura Precipitaciones Viento Presión Humedad
    00:00 +8°C° 1.1 mm 10 mps 736 mmHg 91%
    01:00 +10°C° 0.2 mm 9 mps 736 mmHg 87%
    02:00 +10°C° 0.2 mm 9 mps 736 mmHg 83%
    03:00 +11°C° 0.2 mm 8 mps 736 mmHg 79%
    04:00 +9°C° 0 mm 7 mps 736 mmHg 78%
    05:00 +6°C° 0 mm 7 mps 737 mmHg 76%
    06:00 +4°C° 0 mm 7 mps 737 mmHg 75%
    07:00 +4°C° 0 mm 7 mps 737 mmHg 76%
    08:00 +4°C° 0 mm 7 mps 737 mmHg 77%
    09:00 +4°C° 0 mm 7 mps 737 mmHg 78%
    10:00 +5°C° 0.2 mm 8 mps 737 mmHg 77%
    11:00 +5°C° 0.2 mm 9 mps 736 mmHg 75%
    12:00 +6°C° 0.2 mm 10 mps 736 mmHg 74%
    13:00 +5°C° 0.1 mm 10 mps 736 mmHg 72%
    14:00 +5°C° 0.1 mm 9 mps 735 mmHg 70%
    15:00 +5°C° 0.1 mm 8 mps 735 mmHg 68%
    16:00 +4°C° 0 mm 8 mps 734 mmHg 71%
    17:00 +3°C° 0 mm 9 mps 734 mmHg 74%
    18:00 +3°C° 0 mm 9 mps 734 mmHg 77%
    19:00 +3°C° 0.1 mm 10 mps 733 mmHg 77%
    20:00 +3°C° 0.1 mm 11 mps 733 mmHg 77%
    21:00 +3°C° 0.1 mm 12 mps 732 mmHg 76%
    22:00 +3°C° 0.2 mm 12 mps 732 mmHg 77%
    23:00 +3°C° 0.2 mm 12 mps 732 mmHg 77%

    9 Diciembre, Lunes

    Tiempo Temperatura Precipitaciones Viento Presión Humedad
    00:00 +3°C° 0.2 mm 12 mps 731 mmHg 78%
    01:00 +4°C° 0.4 mm 12 mps 731 mmHg 77%
    02:00 +4°C° 0.4 mm 13 mps 731 mmHg 77%
    03:00 +4°C° 0.4 mm 13 mps 731 mmHg 77%
    04:00 +4°C° 0.1 mm 12 mps 733 mmHg 75%
    05:00 +5°C° 0.1 mm 12 mps 735 mmHg 72%
    06:00 +6°C° 0.1 mm 11 mps 737 mmHg 70%
    07:00 +6°C° 0 mm 11 mps 739 mmHg 70%
    08:00 +6°C° 0 mm 10 mps 741 mmHg 69%
    09:00 +5°C° 0 mm 10 mps 742 mmHg 68%
    10:00 +6°C° 0 mm 9 mps 744 mmHg 68%
    11:00 +6°C° 0 mm 8 mps 745 mmHg 67%
    12:00 +6°C° 0 mm 7 mps 746 mmHg 66%
    13:00 +7°C° 0 mm 6 mps 747 mmHg 69%
    14:00 +7°C° 0 mm 6 mps 747 mmHg 72%
    15:00 +6°C° 0 mm 5 mps 748 mmHg 74%
    16:00 +6°C° 0 mm 5 mps 748 mmHg 77%
    17:00 +6°C° 0 mm 5 mps 748 mmHg 80%
    18:00 +5°C° 0 mm 5 mps 748 mmHg 83%
    19:00 +6°C° 0 mm 5 mps 748 mmHg 84%
    20:00 +6°C° 0 mm 5 mps 748 mmHg 85%
    21:00 +5°C° 0 mm 6 mps 747 mmHg 86%
    22:00 +5°C° 0 mm 6 mps 746 mmHg 86%
    23:00 +5°C° 0 mm 6 mps 746 mmHg 86%

    10 Diciembre, Martes

    Tiempo Temperatura Precipitaciones Viento Presión Humedad
    00:00 +5°C° 0 mm 6 mps 745 mmHg 86%
    01:00 +6°C° 0.2 mm 7 mps 743 mmHg 87%
    02:00 +7°C° 0.2 mm 8 mps 742 mmHg 88%
    03:00 +7°C° 0.2 mm 9 mps 741 mmHg 89%
    04:00 +7°C° 0.3 mm 8 mps 740 mmHg 90%
    05:00 +9°C° 0.3 mm 8 mps 738 mmHg 90%
    06:00 +9°C° 0.3 mm 8 mps 737 mmHg 91%
    07:00 +10°C° 0.5 mm 8 mps 736 mmHg 91%
    08:00 +10°C° 0.5 mm 8 mps 735 mmHg 91%
    09:00 +11°C° 0.5 mm 8 mps 734 mmHg 90%
    10:00 +11°C° 0.2 mm 9 mps 733 mmHg 88%
    11:00 +12°C° 0.2 mm 9 mps 733 mmHg 86%
    12:00 +12°C° 0.2 mm 10 mps 732 mmHg 84%
    13:00 +12°C° 0.2 mm 10 mps 731 mmHg 84%
    14:00 +12°C° 0.2 mm 11 mps 730 mmHg 83%
    15:00 +12°C° 0.2 mm 11 mps 729 mmHg 83%
    16:00 +11°C° 0.5 mm 10 mps 729 mmHg 82%
    17:00 +9°C° 0.5 mm 10 mps 729 mmHg 81%
    18:00 +8°C° 0.5 mm 9 mps 729 mmHg 80%
    19:00 +6°C° 0.9 mm 9 mps 729 mmHg 81%
    20:00 +5°C° 0.9 mm 8 mps 729 mmHg 83%
    21:00 +4°C° 0.9 mm 8 mps 730 mmHg 85%
    22:00 +2°C° 0.3 mm 8 mps 730 mmHg 84%
    23:00 +3°C° 0.3 mm 7 mps 731 mmHg 82%
    Mostrar más